Red Oak, IA

8:44 PM CDT on April 30, 2017 (GMT -0500)
Red Oak Municipal

Weather History for KRDK - March, 2014

Change the Weather History Date:

Tuesday, March 18, 2014

  Actual Average Record
Temperature  
Mean Temperature 44 °F -  
Max Temperature 53 °F 51 °F 80 °F (2012)
Min Temperature 35 °F 30 °F 5 °F (1965)
Degree Days  
Heating Degree Days 21    
Moisture  
Dew Point 31 °F    
Average Humidity 60    
Maximum Humidity 87    
Minimum Humidity 47    
Precipitation  
Precipitation 0.00 in - - ()
Sea Level Pressure  
Sea Level Pressure 29.52 in    
Wind  
Wind Speed 13 mph (SSE)    
Max Wind Speed 22 mph    
Max Gust Speed 32 mph    
Visibility 10 miles    
Events      
Averages and records for this station are not official NWS values.
T = Trace of Precipitation, MM = Missing Value Source: NWS Daily Summary

Daily Weather History Graph

Daily Weather History Graph

Search for Another Location

Airport or City:

Trip Planner

Search our weather history database for the weather conditions in past years. The results will help you decide how hot, cold, wet, or windy it might be!

Date:

Astronomy

Mar. 18, 2014 Rise Set
Actual Time 7:27 AM CDT 7:31 PM CDT
Civil Twilight 7:00 AM CDT 7:58 PM CDT
Nautical Twilight 6:28 AM CDT 8:30 PM CDT
Astronomical Twilight 5:55 AM CDT 9:03 PM CDT
Moon 9:50 PM CDT (3/18) 8:16 AM CDT (3/18)
Length of Visible Light 12h 58m
Length of Day
12h 03m
Waning Gibbous, 96% of the Moon is Illuminated
Mar 18
Waning Gibbous
Mar 23
Last Quarter
Mar 30
New
Apr 7
First Quarter
Apr 15
Full

Hourly Weather History & Observations

Time (CDT) Temp. Windchill Dew Point Humidity Pressure Visibility Wind Dir Wind Speed Gust Speed Precip Events Conditions
12:15 AM 42.8 °F 35.4 °F 28.4 °F 57% 29.53 in 10.0 mi South 15.0 mph 21.9 mph N/A   Clear
12:35 AM 42.8 °F 34.5 °F 28.4 °F 57% 29.52 in 10.0 mi South 18.4 mph 25.3 mph N/A   Clear
12:55 AM 42.8 °F 34.5 °F 28.4 °F 57% 29.51 in 10.0 mi South 18.4 mph - N/A   Partly Cloudy
1:15 AM 41.0 °F 33.1 °F 28.4 °F 61% 29.52 in 10.0 mi SSE 15.0 mph - N/A   Clear
1:35 AM 41.0 °F 33.9 °F 26.6 °F 57% 29.52 in 10.0 mi SSE 12.7 mph 18.4 mph N/A   Scattered Clouds
1:55 AM 41.0 °F 34.7 °F 26.6 °F 57% 29.52 in 10.0 mi SSE 10.4 mph 17.3 mph N/A   Mostly Cloudy
2:15 AM 41.0 °F 34.3 °F 26.6 °F 57% 29.51 in 10.0 mi SSE 11.5 mph - N/A   Scattered Clouds
2:35 AM 41.0 °F 34.7 °F 26.6 °F 57% 29.51 in 10.0 mi SSE 10.4 mph - N/A   Mostly Cloudy
2:55 AM 39.2 °F 31.2 °F 26.6 °F 61% 29.50 in 10.0 mi SSE 13.8 mph - N/A   Mostly Cloudy
3:15 AM 39.2 °F 30.8 °F 24.8 °F 56% 29.50 in 10.0 mi SSE 15.0 mph - N/A   Mostly Cloudy
3:35 AM 39.2 °F 31.2 °F 24.8 °F 56% 29.49 in 10.0 mi SSE 13.8 mph - N/A   Scattered Clouds
3:55 AM 37.4 °F 29.8 °F 24.8 °F 60% 29.49 in 10.0 mi SSE 11.5 mph - N/A   Partly Cloudy
4:15 AM 37.4 °F 29.8 °F 24.8 °F 60% 29.49 in 10.0 mi SSE 11.5 mph - N/A   Clear
4:35 AM 37.4 °F 31.4 °F 24.8 °F 60% 29.49 in 10.0 mi SSE 8.1 mph 15.0 mph N/A   Clear
4:55 AM 37.4 °F 28.9 °F 24.8 °F 60% 29.47 in 10.0 mi SSE 13.8 mph - N/A   Partly Cloudy
5:15 AM 37.4 °F 29.3 °F 24.8 °F 60% 29.46 in 10.0 mi SSE 12.7 mph - N/A   Mostly Cloudy
5:35 AM 37.4 °F 29.3 °F 24.8 °F 60% 29.46 in 10.0 mi SSE 12.7 mph 18.4 mph N/A   Mostly Cloudy
5:55 AM 37.4 °F 30.3 °F 24.8 °F 60% 29.47 in 10.0 mi SSE 10.4 mph 16.1 mph N/A   Mostly Cloudy
6:15 AM 37.4 °F 30.8 °F 24.8 °F 60% 29.47 in 10.0 mi SSE 9.2 mph - N/A   Mostly Cloudy
6:35 AM 37.4 °F 31.4 °F 24.8 °F 60% 29.46 in 10.0 mi SSE 8.1 mph - N/A   Mostly Cloudy
6:55 AM 37.4 °F 29.8 °F 24.8 °F 60% 29.46 in 10.0 mi SSE 11.5 mph - N/A   Overcast
7:15 AM 39.2 °F 32.0 °F 26.6 °F 61% 29.46 in 10.0 mi SSE 11.5 mph - N/A   Overcast
7:35 AM 39.2 °F 33.0 °F 26.6 °F 61% 29.47 in 10.0 mi SSE 9.2 mph - N/A   Mostly Cloudy
7:55 AM 37.4 °F 32.8 °F 26.6 °F 65% 29.48 in 10.0 mi South 5.8 mph - N/A   Partly Cloudy
8:15 AM 39.2 °F 34.2 °F 26.6 °F 61% 29.49 in 10.0 mi SSE 6.9 mph - N/A   Clear
8:35 AM 39.2 °F 34.2 °F 28.4 °F 65% 29.48 in 10.0 mi SE 6.9 mph - N/A   Clear
8:55 AM 41.0 °F 34.7 °F 28.4 °F 61% 29.49 in 10.0 mi SSE 10.4 mph - N/A   Clear
9:15 AM 42.8 °F 35.8 °F 30.2 °F 61% 29.49 in 10.0 mi SE 13.8 mph - N/A   Clear
9:35 AM 44.6 °F 38.1 °F 32.0 °F 61% 29.49 in 10.0 mi SE 13.8 mph - N/A   Clear
9:55 AM 44.6 °F 38.1 °F 32.0 °F 61% 29.49 in 10.0 mi SSE 13.8 mph - N/A   Clear
10:15 AM 46.4 °F 39.8 °F 32.0 °F 57% 29.48 in 10.0 mi SSE 16.1 mph - N/A   Clear
10:35 AM 46.4 °F 40.7 °F 32.0 °F 57% 29.48 in 10.0 mi SSE 12.7 mph - N/A   Clear
10:55 AM 48.2 °F - 33.8 °F 58% 29.48 in 10.0 mi SSE 17.3 mph 23.0 mph N/A   Clear
11:15 AM 48.2 °F - 33.8 °F 58% 29.47 in 10.0 mi SSE 15.0 mph 21.9 mph N/A   Clear
11:35 AM 50.0 °F - 33.8 °F 54% 29.48 in 10.0 mi SSE 13.8 mph 20.7 mph N/A   Clear
11:55 AM 51.8 °F - 33.8 °F 50% 29.47 in 10.0 mi South 18.4 mph 25.3 mph N/A   Clear
12:15 PM 50.0 °F - 33.8 °F 54% 29.47 in 10.0 mi SSE 15.0 mph 21.9 mph N/A   Clear
12:35 PM 50.0 °F - 33.8 °F 54% 29.47 in 10.0 mi SSE 18.4 mph - N/A   Clear
12:55 PM 51.8 °F - 33.8 °F 50% 29.47 in 10.0 mi South 16.1 mph - N/A   Clear
1:15 PM 51.8 °F - 35.6 °F 54% 29.47 in 10.0 mi South 16.1 mph - N/A   Scattered Clouds
1:35 PM 51.8 °F - 35.6 °F 54% 29.48 in 10.0 mi South 13.8 mph - N/A   Mostly Cloudy
1:55 PM 50.0 °F - 35.6 °F 58% 29.48 in 10.0 mi South 11.5 mph 18.4 mph N/A   Overcast
2:15 PM 51.8 °F - 35.6 °F 54% 29.48 in 10.0 mi SSE 12.7 mph 18.4 mph N/A   Overcast
2:35 PM 51.8 °F - 35.6 °F 54% 29.48 in 10.0 mi SSE 11.5 mph - N/A   Overcast
2:55 PM 51.8 °F - 35.6 °F 54% 29.48 in 10.0 mi SSE 8.1 mph 17.3 mph N/A   Overcast
3:15 PM 53.6 °F - 35.6 °F 51% 29.48 in 10.0 mi SSE 10.4 mph - N/A   Overcast
3:35 PM 53.6 °F - 35.6 °F 51% 29.48 in 10.0 mi South 6.9 mph - N/A   Overcast
3:55 PM 53.6 °F - 33.8 °F 47% 29.49 in 10.0 mi Variable 5.8 mph 11.5 mph N/A   Overcast
4:15 PM 51.8 °F - 35.6 °F 54% 29.50 in 10.0 mi SSW 5.8 mph - N/A   Overcast
4:35 PM 51.8 °F - 35.6 °F 54% 29.50 in 10.0 mi Calm Calm - N/A   Overcast
4:55 PM 51.8 °F - 35.6 °F 54% 29.50 in 10.0 mi Calm Calm - N/A   Overcast
5:15 PM 53.6 °F - 33.8 °F 47% 29.50 in 10.0 mi Calm Calm - N/A   Overcast
5:35 PM 53.6 °F - 35.6 °F 51% 29.50 in 10.0 mi NE 4.6 mph - N/A   Mostly Cloudy
5:55 PM 53.6 °F - 35.6 °F 51% 29.51 in 10.0 mi NNE 5.8 mph - N/A   Mostly Cloudy
6:15 PM 51.8 °F - 35.6 °F 54% 29.51 in 10.0 mi NNE 8.1 mph - N/A   Overcast
6:35 PM 51.8 °F - 35.6 °F 54% 29.52 in 10.0 mi NNE 6.9 mph - N/A   Overcast
6:55 PM 50.0 °F - 35.6 °F 58% 29.53 in 10.0 mi NNE 5.8 mph - N/A   Overcast
7:10 PM 50.0 °F - 35.6 °F 58% 29.54 in 10.0 mi North 6.9 mph - N/A   Overcast
7:35 PM 48.2 °F - 35.6 °F 62% 29.56 in 10.0 mi North 5.8 mph - N/A   Overcast
7:55 PM 48.2 °F - 35.6 °F 62% 29.57 in 10.0 mi North 6.9 mph - N/A   Overcast
8:15 PM 48.2 °F - 35.6 °F 62% 29.57 in 10.0 mi North 8.1 mph - N/A   Overcast
8:35 PM 48.2 °F - 35.6 °F 62% 29.59 in 10.0 mi NNW 8.1 mph - N/A   Overcast
8:55 PM 46.4 °F 40.1 °F 35.6 °F 66% 29.61 in 10.0 mi NNW 15.0 mph - N/A   Overcast
9:15 PM 44.6 °F 36.4 °F 37.4 °F 76% 29.62 in 10.0 mi NNW 20.7 mph 26.5 mph N/A   Overcast
9:35 PM 42.8 °F 34.3 °F 37.4 °F 81% 29.65 in 10.0 mi NNW 19.6 mph 29.9 mph N/A   Overcast
9:55 PM 41.0 °F 31.4 °F 35.6 °F 81% 29.66 in 10.0 mi NNW 21.9 mph 28.8 mph N/A   Overcast
10:15 PM 39.2 °F 29.0 °F 33.8 °F 81% 29.68 in 10.0 mi NNW 21.9 mph 29.9 mph N/A   Overcast
10:35 PM 37.4 °F 27.2 °F 32.0 °F 81% 29.69 in 10.0 mi NNW 19.6 mph 32.2 mph N/A   Overcast
10:55 PM 35.6 °F 24.8 °F 32.0 °F 87% 29.70 in 10.0 mi NNW 19.6 mph 29.9 mph N/A   Overcast
11:15 PM 35.6 °F 25.2 °F 32.0 °F 87% 29.71 in 10.0 mi NNW 18.4 mph 28.8 mph N/A   Overcast
11:35 PM 35.6 °F 24.8 °F 32.0 °F 87% 29.72 in 10.0 mi NNW 19.6 mph 32.2 mph N/A   Overcast
11:55 PM 35.6 °F 24.2 °F 30.2 °F 81% 29.72 in 10.0 mi NNW 21.9 mph 29.9 mph N/A   Overcast